Location: Bratsk-Energetik
(56.3300°N, 101.7600°E)
Time: 21:34:17
(UTC+08:00)

ISS - Pass Details

Date: 12 May 2021
Orbit: 417 x 422 km, 51.6° (Epoch: 12 June)

Event Time Altitude Azimuth Distance (km) Brightness Sun altitude
Exits shadow 01:05:49 17° 118° (ESE) 1,151 -1.8 -15.6°
Drops below altitude 10° 01:06:59 10° 103° (ESE) 1,508 -1.1 -15.6°
Sets 01:09:19 0° 90° (E) 2,375 0.1 -15.6°
